Location: Charlottesville
(38.0290°N, 78.4770°W)
Time: 06:01:16
(UTC-05:00)

Vanguard 3 - All Passes

Search period start: 18 December 2017 00:00
Search period end: 28 December 2017 00:00
Orbit: 509 x 3263 km, 33.3° (Epoch: 18 December)

Date Brightness Start Highest point End Pass type
(mag) Time Alt. Az. Time Alt. Az. Time Alt. Az.
18 Dec - 07:44:06 10° S 07:47:02 11° SSE 07:49:35 10° SE daylight
18 Dec - 09:52:54 10° SW 09:59:42 28° SSE 10:04:12 10° ESE daylight
18 Dec - 12:05:58 10° WSW 12:11:21 45° S 12:15:08 10° ESE daylight
18 Dec - 14:18:46 10° WSW 14:22:21 33° SSW 14:25:44 10° SE daylight
18 Dec - 16:32:18 10° SW 16:33:20 11° SSW 16:34:26 10° S daylight
19 Dec - 08:38:25 10° SSW 08:45:44 22° SSE 08:50:47 10° ESE daylight
19 Dec - 10:51:06 10° WSW 10:57:56 41° S 11:02:17 10° E daylight
19 Dec - 13:04:37 10° WSW 13:09:16 44° S 13:12:49 10° ESE daylight
19 Dec - 15:17:28 10° WSW 15:20:06 18° SSW 15:22:48 10° SSE daylight
20 Dec - 07:24:36 10° S 07:31:23 17° SSE 07:36:29 10° ESE daylight
20 Dec - 09:35:56 10° SW 09:44:14 35° SSE 09:49:21 10° E daylight
20 Dec - 11:49:54 10° WSW 11:56:00 50° S 12:00:02 10° ESE daylight
20 Dec - 14:03:17 10° W 14:07:01 30° SSW 14:10:17 10° SE daylight
21 Dec - 06:13:05 10° SSE 06:16:39 11° SSE 06:19:48 10° SE visible
21 Dec - 08:20:48 10° SSW 08:30:08 29° SSE 08:36:06 10° ESE daylight
21 Dec - 10:34:37 10° WSW 10:42:30 48° S 10:47:15 10° E daylight
21 Dec - 12:48:48 10° W 12:53:55 44° S 12:57:37 10° ESE daylight
21 Dec - 15:02:29 10° WSW 15:04:39 15° SSW 15:06:46 10° S daylight
22 Dec - 07:06:08 10° SSW 07:15:38 23° SSE 07:22:13 10° ESE daylight
22 Dec - 09:18:58 10° SW 09:28:40 42° SSE 09:34:23 10° E daylight
22 Dec - 11:33:44 10° WSW 11:40:37 54° S 11:44:55 10° ESE daylight
22 Dec - 13:47:44 10° W 13:51:38 27° SSW 13:54:50 10° SE daylight
23 Dec - 05:52:44 10° S 06:00:44 16° SSE 06:07:01 10° ESE visible
23 Dec - 08:03:17 10° SW 08:14:26 36° SSE 08:21:14 10° E daylight
23 Dec - 10:18:04 10° WSW 10:27:01 54° S 10:32:12 10° E daylight
23 Dec - 12:32:53 10° W 12:38:32 43° SSW 12:42:24 10° ESE daylight
23 Dec - 14:47:40 10° SW 14:49:08 12° SSW 14:50:32 10° S daylight
24 Dec - 06:48:00 10° SSW 06:59:46 29° SSE 07:07:32 10° E visible
24 Dec - 09:01:58 10° WSW 09:13:02 50° SSE 09:19:20 10° E daylight
24 Dec - 11:17:28 10° W 11:25:10 56° S 11:29:49 10° ESE daylight
24 Dec - 13:32:05 10° W 13:36:10 25° SSW 13:39:23 10° SSE daylight
25 Dec - 05:33:44 10° SSW 05:44:43 22° SSE 05:52:50 10° ESE visible
25 Dec - 07:45:49 10° SW 07:58:38 43° SSE 08:06:12 10° E daylight
25 Dec - 10:01:25 10° WSW 10:11:27 60° S 10:17:06 10° E daylight
25 Dec - 12:16:50 10° W 12:23:06 42° SSW 12:27:12 10° SE daylight
26 Dec - 04:21:40 10° S 04:29:23 14° SE 04:35:57 10° ESE visible
26 Dec - 06:30:04 10° SSW 06:43:47 35° SSE 06:52:35 10° E visible
26 Dec - 08:44:56 10° WSW 08:57:19 56° S 09:04:13 10° E daylight
26 Dec - 11:01:05 10° W 11:09:41 57° S 11:14:41 10° ESE daylight
26 Dec - 13:16:21 10° W 13:20:39 23° SSW 13:23:55 10° SSE daylight
27 Dec - 05:15:13 10° SSW 05:28:33 27° SSE 05:38:07 10° E visible
27 Dec - 07:28:24 10° SW 07:42:43 49° SSE 07:51:04 10° E daylight
27 Dec - 09:44:42 10° WSW 09:55:50 64° S 10:01:59 10° E daylight
27 Dec - 12:00:41 10° W 12:07:36 41° SSW 12:11:58 10° SE daylight
